Regional Weather Roundup
Issued by NWS

Home | Current Version | Previous Version | Text Only | Print | Product List | Glossary Off
Versions: 1 2 3 4 5 6 7 8 9 10 11 12 13 14 15 16 17 18 19 20 21 22 23 24 25 26 27 28 29 30 31 32 33 34 35 36 37 38 39 40 41 42 43 44 45 46 47 48 49 50

000
ASUS42 KTBW 262310
RWRFL
FLORIDA REGIONAL WEATHER ROUNDUP
NATIONAL WEATHER SERVICE TAMPA BAY RUSKIN FL
600 PM EST THU FEB 26 2015

NOTE: "FAIR" INDICATES FEW OR NO CLOUDS BELOW 12,000 FEET WITH NO
SIGNIFICANT WEATHER AND/OR OBSTRUCTIONS TO VISIBILITY.


FLZ001>010-012>015-112-114-115-270000-
PANHANDLE FLORIDA

CITY           SKY/WX    TMP DP  RH WIND       PRES   REMARKS
PENSACOLA      CLOUDY    43  34  70 N14       30.08R WCI  36
PENSACOLA NAS  CLOUDY    44  36  73 N12       30.08R WCI  38
MILTON NAS     CLOUDY    42  34  73 N10       30.09R WCI  36
CRESTVIEW      CLOUDY    42  36  79 N9        30.10R WCI  37
DUKE FIELD     CLOUDY    42  36  76 N10       30.07R WCI  36
VALPARAISO     CLOUDY    44  36  73 N9        30.06R WCI  39
MARY ESTHER    CLOUDY    44  34  66 N15       30.06R WCI  37
TRI COUNTY     CLOUDY    44  37  76 NW6       30.08R WCI  41
PANAMA CITY    CLOUDY    45  38  76 NW14      30.05R WCI  38
TYNDALL AFB    CLOUDY    47  40  77 N10       30.04R WCI  42
APALACHICOLA   CLOUDY    52  41  66 N7        30.01R

STATION/POSITION SKY/WX   TEMP    WIND        PRES    WAVE   SWELL
                          AIR SEA DIR/SP/G            HT/PER HT/PER
                          (F)     (DEG/KT/KT) (MB)    (FT/S) (FT/S)
30.1N   87.6W              47 62  360/ 14/ 17 1017.6R   3/ 8   2/ 8
29.2N   88.2W              49 64   10/ 14/ 17 1018.4R   4/ 5   2/ 7
28.7N   86.0W              54 67  340/ 12/ 14 1016.5R   5/ 8   5/ 8
PANAMA CITY BEAC           45 57  350/  7/ 11 1017.2R
CAPE SAN BLAS    NOT AVBL
TOWER C                    50     330/  7/  8 1016.1R
28.5N   84.5W              54 66  310/ 10/ 12 1015.5R   6/ 8   5/ 8

$$
FLZ011-016>038-118-127-128-134-139-239-270000-
NORTH FLORIDA

CITY           SKY/WX    TMP DP  RH WIND       PRES   REMARKS
MARIANNA       CLOUDY    45  38  76 N10       30.05R WCI  40
TALLAHASSEE    CLOUDY    50  40  68 N10G20    30.01R
PERRY          MOCLDY    54  44  69 N9        29.99R
CROSS CITY       N/A     57  46  66 NE3       29.97R
LAKE CITY      CLOUDY    54  45  71 N6        29.97R
GAINESVILLE    CLOUDY    54  46  74 NW5       29.97R
MAYPORT NAS    CLOUDY    50  45  83 NE13      29.98R
JACKSONVILLE   CLOUDY    52  47  83 E14       29.97R
JAX NAS        CLOUDY    57  45  64 NE10      29.97R
JAX CRAIG      CLOUDY    52  44  74 NE10      29.98R
JAX CECIL      PTCLDY    57  45  62 N9        29.97R
FERNANDINA BEA CLOUDY    54  46  76 NE10      29.97R
ST AUGUSTINE   MOCLDY    53  47  79 N10       29.98R

STATION/POSITION SKY/WX   TEMP    WIND        PRES    WAVE   SWELL
                          AIR SEA DIR/SP/G            HT/PER HT/PER
                          (F)     (DEG/KT/KT) (MB)    (FT/S) (FT/S)
SHELL POINT      NOT AVBL
KEATON BEACH               53     330/  5/  8 1015.9R
CEDAR KEY                  53     320/  6/  9 1015.5R
FERNANDINA                 50 55   70/  8/ 13 1014.3R
30.7N   81.3W                 54                N/A     3/ 7
MAYPORT                    50 56   60/ 11/ 13 1015.0R
31.4N   80.9W              48 53  360/ 12/ 17 1015.4R   2/ 7   2/ 7
ST AUGUSTINE               52      50/ 14/ 15 1015.2R

$$
FLZ040-043>046-052-053-057-058-063-144-270000-
INTERIOR CENTRAL FLORIDA

CITY           SKY/WX    TMP DP  RH WIND       PRES   REMARKS
OCALA          MOCLDY    59  46  63 N10       29.95R
THE VILLAGES     N/A     61  52  72 SW7       29.85R
LEESBURG       CLOUDY    64  51  62 W8        29.95R
SANFORD        CLOUDY    59  52  77 E10       29.94R
ORLANDO EXEC   CLOUDY    67  56  67 SW6       29.93R
ORLANDO INTL   CLOUDY    67  56  67 W6        29.93R
KISSIMMEE      CLOUDY    64  57  77 W5        29.94R
WINTER HAVEN   CLOUDY    64  55  72 W7        29.96R
LAKELAND       CLOUDY    63  54  72 W7        29.95R
BARTOW         CLOUDY    63  54  72 W7        29.95R
OKEECHOBEE     CLOUDY    64  63  94 NW3       29.94R

$$
FLZ041-047-054-059-064-141-147-270000-
EAST CENTRAL FLORIDA

CITY           SKY/WX    TMP DP  RH WIND       PRES   REMARKS
ORMOND BEACH   MOCLDY    54  48  82 NE9       29.96R
DAYTONA BEACH  MOCLDY    56  49  77 N14       29.96R
DELAND         PTCLDY    57  50  77 NE9       29.97R
NEW SMYRNA BEA MOCLDY    57  50  77 N14       29.96R
JFK SPACE CTR  CLOUDY    59  55  85 N12       29.93R
CAPE CANAVERAL CLEAR     61  56  85 N7        29.93R
PATRICK AFB    DRIZZLE   63  61  93 N10       29.92R
MELBOURNE      LGT RAIN  65  62  90 NW9       29.93R FOG
VERO BEACH     LGT RAIN  66  63  90 NW6       29.91R
FT PIERCE      CLOUDY    67  64  90 NW6       29.92R
STUART         MOCLDY    68  64  88 W9        29.93R

STATION/POSITION SKY/WX   TEMP    WIND        PRES    WAVE   SWELL
                          AIR SEA DIR/SP/G            HT/PER HT/PER
                          (F)     (DEG/KT/KT) (MB)    (FT/S) (FT/S)
28.5N   80.2W              65 69  350/ 12/ 14 1012.8R
28.9N   78.5W              67 74  310/ 10/ 14 1013.2R   7/ 8   7/ 8
TRIDENT PIER     NOT AVBL
28.4N   80.5W                 64                N/A     2/12   2/12
27.6N   80.2W                 72                N/A     2/12

$$
FLZ050-056-061-142-242-148-248-149-249-151-251-155-255-
160-260-270000-
WEST CENTRAL FLORIDA

CITY           SKY/WX    TMP DP  RH WIND       PRES   REMARKS
CRYSTAL RIVER  CLOUDY    54  48  82 W6        29.97R
INVERNESS      CLOUDY    55  43  62 CALM      29.97R
BROOKSVILLE    MOCLDY    56  48  74 NW9       29.97R
ZEPHYRHILLS    CLOUDY    59  50  72 NW9       29.97R
CLEARWATER     CLOUDY    58  52  80 N12       29.97R
TAMPA INTL     CLOUDY    59  50  72 NW9       29.97R
TAMPA EXEC     CLOUDY    63  52  67 NW7       29.97R
PLANT CITY     CLOUDY   N/A N/A N/A NW9       29.98R
MACDILL AFB    CLOUDY    59  55  86 NW9       29.97R
PETER O KNIGHT CLOUDY    61  54  77 N7        29.97R
ST PETERSBURG  CLOUDY    59  52  77 N9        29.94R
SARASOTA       CLOUDY    60  54  80 N8        29.94R
VENICE         CLOUDY    63  57  82 NW8       29.95R

STATION/POSITION SKY/WX   TEMP    WIND        PRES    WAVE   SWELL
                          AIR SEA DIR/SP/G            HT/PER HT/PER
                          (F)     (DEG/KT/KT) (MB)    (FT/S) (FT/S)
CEDAR KEY                  53     320/  6/  9 1015.5R
28.5N   84.5W              54 66  310/ 10/ 12 1015.5R   6/ 8   5/ 8
27.3N   84.3W                 70                N/A     7/ 8
CLEARWATER BEACH           56 63  340/ 14/ 15 1014.9R
MIDDLE TAMPA BAY           60     360/  7/ 10 1014.8R
VENICE                     61 64  330/ 15/ 16 1013.6R

$$
FLZ066-069-070-075>078-162-262-165-265-270000-
SOUTHWEST FLORIDA AND KEYS

CITY           SKY/WX    TMP DP  RH WIND       PRES   REMARKS
PUNTA GORDA    CLOUDY    64  63  96 W3        29.95R
FT MYERS       CLOUDY    65  63  93 N6        29.92R
SOUTHWEST INTL CLOUDY    67  63  87 N7        29.93R
NAPLES         CLOUDY    69  65  86 N5        29.92R
MARCO ISLAND   CLOUDY    72  64  78 NW5       29.92R
IMMOKALEE      CLOUDY   N/A N/A N/A N7        29.93R
MARATHON       PTCLDY    79  73  82 VRB5      29.91R
KEY WEST NAS   MOCLDY    79  72  79 W9        29.91R
KEY WEST INTL  MOCLDY    78  74  87 W6        29.91R

STATION/POSITION SKY/WX   TEMP    WIND        PRES    WAVE   SWELL
                          AIR SEA DIR/SP/G            HT/PER HT/PER
                          (F)     (DEG/KT/KT) (MB)    (FT/S) (FT/S)
VENICE                     61 64  330/ 15/ 16 1013.6R
NAPLES                     66 69  330/  5/  7 1012.8R
26.0N   85.6W              68 76  360/ 14/ 17 1013.6R   6/ 8   3/ 8
DRY TORTUGAS               75     250/ 10/ 10 1011.4R
SAND KEY                   75     290/  9/ 11 1012.8R
SOMBRERO KEY               76     250/ 11/ 12 1013.4R
LONG KEY                   77 76  270/  6/  7 1013.8R
MOLASSES REEF              75 74  240/  5/  6 1013.2R

$$
FLZ067-068-071>074-168-172>174-270000-
SOUTHEAST FLORIDA

CITY           SKY/WX    TMP DP  RH WIND       PRES   REMARKS
W PALM BEACH   MOCLDY    81  67  62 SW16G23   29.89R
FT LAUDER-EXEC PTCLDY    80  71  74 W10       29.91R
FT LAUDERDALE  MOCLDY    79  71  76 W15G24    29.91R
POMPANO BEACH  PTCLDY    80  69  69 W15       29.91R
PEMBROKE PINES MOCLDY    80  70  71 SW15      29.93R
OPA LOCKA      MOCLDY    81  70  69 W9G21     29.92R
MIAMI          MOCLDY    80  70  71 W13       29.92R
WEST KENDALL   MOCLDY    80  71  74 W13       29.92R
HOMESTEAD      MOCLDY    82  70  68 W10       29.91R

STATION/POSITION SKY/WX   TEMP    WIND        PRES    WAVE   SWELL
                          AIR SEA DIR/SP/G            HT/PER HT/PER
                          (F)     (DEG/KT/KT) (MB)    (FT/S) (FT/S)
PORT EVERGLADES            80     250/  7/ 13 1012.9
VIRGINIA KEY               79 73  270/ 12/ 14 1012.3R
LAKE WORTH                 80 74  240/ 11/ 19 1012.2R
SETTLEMENT POINT           78     230/ 17/ 18 1013.8R

$$



USA.gov is the U.S. government's official web portal to all federal, state and local government web resources and services.